[[{"header":{"parameterUnit":"m.s-1","parameterCategory":1,"la1":30.2991,"la2":30.254,"lo1":-89.0895,"lo2":-89.0444,"dy":0.0017,"dx":0.0017,"nx":28,"ny":28,"refTime":"2023-08-08T09:00:00:Z","depth":0,"parameterNumber":2,"parameterNumberName":"U-component_of_WINDS"},"data":[0,0,0,0,0,0,0,0,0,0,0,0,0,0,0,0,0,0,0,0,0,0,0,0,0,0,0,0,0,0,0,0,0,0,0,0,0,0,0,0,0,0,0,0,0,0,0,0,0,0,0,0,0,0,0,0,0,0,2.8199,2.8201,0,2.8361,2.8362,2.8364,2.8366,2.8364,2.8362,2.836,2.8525,2.8531,2.8537,0,0,0,0,0,0,0,0,0,0,0,0,0,2.7891,2.7897,2.8199,2.8201,2.8203,2.836,2.8363,2.8365,2.8366,2.8363,2.8361,2.8359,2.8523,2.853,2.8538,0,0,0,0,0,0,0,0,0,0,0,0,0,2.8036,2.7899,2.8199,2.8223,2.8226,2.836,2.8363,2.8365,2.8367,2.8363,2.836,2.8357,2.852,2.853,2.8539,2.8659,0,0,2.8568,2.8572,0,0,0,0,0,0,0,0,2.8028,2.8047,2.8217,2.8221,2.8226,2.834,2.8315,2.8464,2.8367,2.8313,2.836,2.8356,2.8466,2.848,2.8517,2.8667,2.8674,2.8569,2.8574,2.8578,2.8581,0,0,0,0,0,0,0,2.8018,2.804,2.8263,2.8219,2.8225,2.8225,2.8242,2.8343,2.8405,2.8318,2.8318,2.8337,2.8468,2.8507,2.8521,2.8676,2.8568,2.8577,2.8583,2.8586,2.8934,2.8937,0,0,0,0,0,0,2.8003,2.8032,2.8258,2.8268,2.8117,2.8233,2.8252,2.8306,2.8404,2.8416,2.834,2.8337,2.8493,2.8509,2.8526,2.8674,2.8578,2.8587,2.8593,2.8931,2.8935,2.8939,0,0,0,0,0,0,2.7996,2.8023,2.8251,2.815,2.8179,2.8242,2.8302,2.8311,2.8351,2.842,2.8431,2.8369,2.8491,2.8513,2.8626,2.868,2.8592,2.86,2.8926,2.8932,2.8937,2.897,0,0,0,0,0,0,2.7988,2.8021,2.8067,2.8151,2.8185,2.8349,2.8306,2.8316,2.8367,2.8365,2.8451,2.8462,2.849,2.8612,2.8636,2.8691,2.8608,2.8922,2.8929,2.8935,2.8965,2.8976,2.8986,0,0,0,0,0,2.7977,2.807,2.8069,2.8097,2.8244,2.8352,2.8371,2.8401,2.8372,2.8419,2.8464,2.846,2.867,2.8624,2.865,2.8709,2.8919,2.8927,2.8935,2.896,2.8974,2.8985,0,0,0,0,0,0,2.799,2.8081,2.8082,2.8205,2.8271,2.8352,2.8412,2.8415,2.849,2.8485,2.8519,2.8538,2.8651,2.8692,2.8638,2.8831,2.8791,2.8804,2.8801,2.8815,2.8825,2.8813,2.8615,0,0,0,0,0,2.8008,2.8088,2.8163,2.8264,2.8297,2.8349,2.8397,2.8415,2.8484,2.8512,2.8565,2.8632,2.8713,2.8766,2.8845,2.897,2.8989,2.9024,2.9035,2.9043,2.9055,2.9124,2.9141,2.8965,2.8965,2.8965,0,0,2.8044,2.8104,2.8152,2.8269,2.8321,2.8404,2.8372,2.846,2.8522,2.8525,2.8635,2.8677,2.8754,2.8874,2.893,2.8911,2.9107,2.9053,2.9059,2.9067,2.9134,2.9151,2.9166,2.897,2.8969,2.8969,0,0,2.8153,2.8206,2.8297,2.8351,2.8431,2.8465,2.8487,2.8568,2.8595,2.8707,2.8711,2.8784,2.8924,2.8979,2.9025,2.9155,2.9155,2.918,2.9235,2.9303,2.9317,2.9329,2.9376,2.9393,2.9191,2.9191,2.9191,0,2.8189,2.8313,2.8343,2.8432,2.8483,2.849,2.8582,2.8633,2.8735,2.877,2.8748,2.8923,2.8976,2.9109,2.9141,2.9178,2.9204,2.917,2.9312,2.9325,2.9337,2.9383,2.94,2.9194,2.9193,2.9193,2.9193,0,2.8353,2.8439,2.8502,2.8601,2.8659,2.8749,2.8793,2.8849,2.8861,2.8897,2.9011,2.9074,2.9166,2.9199,2.9212,2.9334,2.932,2.9305,2.9265,2.9356,2.9399,2.9417,2.9197,2.9196,2.9196,2.9195,0,0,2.8475,2.859,2.8613,2.8658,2.8747,2.8814,2.8904,2.8994,2.9041,2.9111,2.9188,2.9306,2.9292,2.9345,2.9364,2.9424,2.9523,2.9401,2.9404,2.9422,2.9663,2.9674,2.9694,2.9523,2.9527,2.9529,2.9656,0,2.8594,2.8755,2.8785,2.8925,2.9005,2.9013,2.9092,2.9155,2.9191,2.9264,2.9304,2.9388,2.9363,2.9395,2.9454,2.9499,2.9572,2.949,2.9595,2.9599,2.9576,2.9716,2.9729,2.9845,2.9673,2.9676,2.9678,0,2.8755,2.8829,2.8977,2.9056,2.9091,2.9161,2.9246,2.9316,2.9388,2.941,2.9469,2.9482,2.9576,2.9532,2.9662,2.9605,2.965,2.9679,2.9684,2.9695,2.9644,2.9732,2.9883,2.9901,2.9705,2.9703,2.9701,0,2.883,2.8967,2.9074,2.9112,2.9207,2.9256,2.9298,2.9367,2.9419,2.9493,2.9528,2.9612,2.9658,2.9723,2.9758,2.9722,2.9886,2.9844,2.9908,2.9907,2.9942,2.994,3.0104,2.997,2.997,2.997,2.9969,0,2.896,2.9051,2.9109,2.9174,2.9276,2.931,2.9409,2.945,2.9512,2.9585,2.9597,2.9666,2.9708,2.9783,2.9811,2.9915,2.9936,2.9956,2.9963,2.9956,2.9953,2.9986,2.9979,2.9974,2.9973,2.9972,2.9971,0,2.9061,2.9104,2.9221,2.9301,2.9323,2.9395,2.9463,2.9527,2.9563,2.9657,2.968,2.9737,2.9826,2.9868,2.9978,2.9996,3.0115,3.0116,3.0091,3.0093,3.0155,3.0148,3.0346,3.0374,3.0221,3.0222,3.0224,0,2.9142,2.9212,2.93,2.935,2.9393,2.9474,2.9527,2.9563,2.9618,2.9706,2.9759,2.9849,2.9922,3.0064,3.0115,3.02,3.0203,3.0266,3.0215,3.0206,3.0205,3.02,3.0208,3.0275,3.0277,3.0278,3.0279,0,2.9281,2.9298,2.9375,2.946,2.9523,2.9591,2.9658,2.9699,2.9745,2.9806,2.9898,2.9955,3.0067,3.0156,3.0244,3.0287,3.0291,3.0294,3.0314,3.0308,3.0291,3.0301,3.0116,3.029,3.0289,3.0288,3.0287,3.0287,2.9375,2.9438,2.9509,2.9595,2.9649,2.9711,2.9775,2.9819,2.9896,2.9991,3.0007,3.0104,3.0174,3.0293,3.0339,3.0415,3.0401,3.0428,3.0435,3.0442,3.0446,3.0278,3.0431,3.0431,3.0431,3.0431,3.0431,0,2.9515,2.9561,2.9639,2.9733,2.98,2.9798,2.9872,2.9928,3.0013,3.0079,3.0151,3.0256,3.0342,3.04,3.0487,3.0538,3.0542,3.0559,3.0556,3.0566,3.0454,3.0429,3.0555,3.0555,3.0555,3.0555,3.0554,3.0554,2.9596,2.9702,2.9728,2.9861,2.9907,3.0002,3.0045,3.0102,3.0155,3.0272,3.0343,3.038,3.0443,3.0535,3.0614,3.0629,3.0661,3.0679,3.0694,3.0587,3.0574,3.0562,3.0539,3.0686,3.0686,3.08,3.0801,3.0802]},{"header":{"parameterUnit":"m.s-1","parameterCategory":1,"la1":30.2991,"la2":30.254,"lo1":-89.0895,"lo2":-89.0444,"dy":0.0017,"dx":0.0017,"nx":28,"ny":28,"refTime":"2023-08-08T09:00:00:Z","depth":0,"parameterNumber":3,"parameterNumberName":"V-component_of_WINDS"},"data":[0,0,0,0,0,0,0,0,0,0,0,0,0,0,0,0,0,0,0,0,0,0,0,0,0,0,0,0,0,0,0,0,0,0,0,0,0,0,0,0,0,0,0,0,0,0,0,0,0,0,0,0,0,0,0,0,0,0,5.4118,5.412,0,5.4311,5.4313,5.4315,5.4279,5.4275,5.4272,5.4268,5.4461,5.4469,5.4478,0,0,0,0,0,0,0,0,0,0,0,0,0,5.371,5.3718,5.4117,5.412,5.4122,5.431,5.4313,5.4316,5.4279,5.4275,5.4271,5.4267,5.4459,5.4468,5.4478,0,0,0,0,0,0,0,0,0,0,0,0,0,5.3893,5.372,5.4117,5.4127,5.413,5.431,5.4313,5.4316,5.428,5.4275,5.427,5.4265,5.4455,5.4467,5.448,5.4661,0,0,5.4518,5.4524,0,0,0,0,0,0,0,0,5.3883,5.3908,5.4123,5.4126,5.413,5.4265,5.424,5.4432,5.4281,5.4223,5.4268,5.4262,5.44,5.4417,5.4464,5.467,5.4678,5.4519,5.4527,5.4532,5.4536,0,0,0,0,0,0,0,5.3871,5.39,5.4194,5.4126,5.413,5.4119,5.414,5.4276,5.4338,5.4227,5.4225,5.4249,5.4401,5.4452,5.4468,5.4681,5.4519,5.453,5.4538,5.4543,5.5044,5.5049,0,0,0,0,0,0,5.3855,5.389,5.4188,5.4199,5.3991,5.4131,5.4154,5.4227,5.4336,5.4348,5.4253,5.4247,5.4433,5.4454,5.4475,5.4694,5.4532,5.4544,5.4551,5.5038,5.5045,5.5051,0,0,0,0,0,0,5.3847,5.3882,5.418,5.4044,5.4081,5.4144,5.4226,5.4234,5.4285,5.4356,5.4366,5.4295,5.443,5.4457,5.4615,5.47,5.4549,5.4561,5.5031,5.504,5.5048,5.5134,0,0,0,0,0,0,5.3835,5.388,5.3951,5.4046,5.4089,5.4319,5.4231,5.4241,5.4307,5.4301,5.4398,5.4409,5.4428,5.4597,5.4628,5.4715,5.4571,5.5024,5.5035,5.5045,5.5124,5.5145,5.5162,0,0,0,0,0,5.3821,5.3966,5.3954,5.3991,5.4179,5.4324,5.4348,5.4369,5.4314,5.4385,5.4431,5.4406,5.4686,5.4613,5.4648,5.474,5.5018,5.5032,5.5044,5.5115,5.5141,5.5162,0,0,0,0,0,0,5.3878,5.3979,5.3967,5.4148,5.4228,5.4317,5.4408,5.4395,5.4491,5.448,5.45,5.4522,5.4682,5.4726,5.4644,5.492,5.4844,5.4865,5.4886,5.4911,5.493,5.4916,5.4581,0,0,0,0,0,5.3911,5.4022,5.4104,5.4255,5.4296,5.4345,5.4409,5.4418,5.4501,5.4534,5.4591,5.467,5.4776,5.4846,5.4947,5.5129,5.5149,5.521,5.5229,5.5244,5.5262,5.5361,5.5389,5.5094,5.5094,5.5094,0,0,5.3982,5.4051,5.412,5.4269,5.4332,5.4444,5.4374,5.4496,5.458,5.4552,5.4705,5.4749,5.4839,5.501,5.5088,5.5052,5.5348,5.5261,5.5273,5.5282,5.5377,5.5405,5.543,5.5103,5.5101,5.51,0,0,5.4168,5.4232,5.4366,5.443,5.4527,5.4558,5.459,5.4682,5.4711,5.4865,5.4846,5.4944,5.5126,5.5191,5.5248,5.5457,5.5438,5.5489,5.559,5.5686,5.571,5.573,5.5805,5.5832,5.5506,5.5507,5.5507,0,5.4244,5.4415,5.4435,5.456,5.4625,5.4607,5.4741,5.4801,5.4925,5.497,5.4928,5.5156,5.5215,5.5401,5.5452,5.5498,5.5534,5.5479,5.5705,5.5726,5.5745,5.5817,5.5845,5.5512,5.5512,5.5511,5.5511,0,5.4502,5.4621,5.4717,5.4839,5.4915,5.5043,5.5081,5.5155,5.5157,5.5192,5.5348,5.5418,5.5533,5.5577,5.558,5.5763,5.5738,5.57,5.5624,5.5779,5.5846,5.5874,5.5521,5.5519,5.5517,5.5515,0,0,5.4732,5.4863,5.4898,5.4953,5.5057,5.5148,5.5275,5.5389,5.5452,5.5537,5.5643,5.5797,5.5763,5.5827,5.5836,5.592,5.6082,5.5872,5.5875,5.5909,5.6287,5.6316,5.6347,5.6068,5.6074,5.6078,5.628,0,5.4928,5.5155,5.5176,5.5378,5.5487,5.547,5.558,5.5654,5.569,5.5786,5.5824,5.5933,5.588,5.5918,5.6001,5.6045,5.6158,5.603,5.6166,5.6171,5.6146,5.6383,5.6413,5.6601,5.6306,5.6311,5.6314,0,5.5189,5.5284,5.5497,5.5586,5.5632,5.5731,5.5837,5.5929,5.6013,5.6032,5.6104,5.6102,5.623,5.6148,5.6324,5.6237,5.6293,5.6322,5.633,5.6345,5.6253,5.6404,5.6661,5.6689,5.6356,5.6352,5.6349,0,5.5335,5.5516,5.5667,5.5714,5.5821,5.5891,5.5938,5.6017,5.6084,5.6175,5.6218,5.6323,5.638,5.646,5.6485,5.6423,5.666,5.658,5.6679,5.6678,5.6731,5.6727,5.7001,5.6765,5.6765,5.6764,5.6764,0,5.5554,5.5685,5.5734,5.5828,5.5973,5.5995,5.6138,5.6181,5.6251,5.635,5.634,5.6433,5.646,5.6557,5.6577,5.672,5.6745,5.6764,5.6768,5.6766,5.6764,5.6804,5.6792,5.6772,5.677,5.6769,5.6768,0,5.5743,5.5781,5.5945,5.6033,5.6058,5.6161,5.6235,5.6324,5.6357,5.6483,5.6514,5.6565,5.6679,5.6712,5.6848,5.6861,5.7029,5.702,5.7002,5.7002,5.7099,5.709,5.7409,5.7452,5.7187,5.719,5.7192,0,5.588,5.5981,5.608,5.6147,5.6198,5.6305,5.6374,5.6397,5.6469,5.6571,5.6647,5.6759,5.6851,5.7033,5.7082,5.7186,5.718,5.7285,5.7195,5.719,5.7182,5.7176,5.7186,5.7302,5.7305,5.7307,5.7309,0,5.612,5.6134,5.6234,5.6341,5.6424,5.6508,5.659,5.6644,5.6679,5.6759,5.6877,5.6948,5.7087,5.7199,5.7304,5.735,5.7336,5.7336,5.7365,5.7364,5.735,5.7359,5.7049,5.7329,5.7327,5.7326,5.7325,5.7324,5.6288,5.6377,5.6461,5.6572,5.6636,5.6712,5.6799,5.6844,5.6943,5.706,5.7066,5.7193,5.7272,5.7412,5.7463,5.7562,5.753,5.7572,5.7582,5.7592,5.7601,5.7333,5.758,5.758,5.7579,5.7579,5.7579,0,5.6528,5.6581,5.6683,5.6798,5.6885,5.6865,5.6953,5.7027,5.714,5.7215,5.7306,5.744,5.7548,5.7604,5.7711,5.7779,5.7775,5.7806,5.7802,5.7813,5.7622,5.7587,5.7807,5.7807,5.7807,5.7807,5.7807,5.7807,5.6663,5.6813,5.6836,5.7016,5.7067,5.7193,5.7245,5.7314,5.7375,5.7526,5.7616,5.7652,5.772,5.7831,5.7929,5.7942,5.7982,5.8018,5.8028,5.7849,5.7826,5.7804,5.7771,5.8026,5.8026,5.821,5.8211,5.8213]}]]